TimePDT,TemperatureF,Dew PointF,Humidity,Sea Level PressureIn,VisibilityMPH,Wind Direction,Wind SpeedMPH,Gust SpeedMPH,PrecipitationIn,Events,Conditions,WindDirDegrees,DateUTC
12:53 AM,36.0,28.0,73,30.43,10.0,North,4.6,-,N/A,,Clear,360,2013-04-18 07:53:00
1:53 AM,33.1,26.1,75,30.44,10.0,Calm,Calm,-,N/A,,Clear,0,2013-04-18 08:53:00
2:53 AM,34.0,27.0,75,30.43,10.0,Calm,Calm,-,N/A,,Clear,0,2013-04-18 09:53:00
3:53 AM,32.0,25.0,75,30.44,10.0,Calm,Calm,-,N/A,,Clear,0,2013-04-18 10:53:00
4:53 AM,30.0,24.1,79,30.45,10.0,Calm,Calm,-,N/A,,Clear,0,2013-04-18 11:53:00
5:53 AM,28.9,23.0,78,30.45,10.0,Calm,Calm,-,N/A,,Clear,0,2013-04-18 12:53:00
6:53 AM,28.9,25.0,85,30.47,10.0,Calm,Calm,-,N/A,,Clear,0,2013-04-18 13:53:00
7:53 AM,36.0,28.9,76,30.48,10.0,Calm,Calm,-,N/A,,Clear,0,2013-04-18 14:53:00
8:53 AM,42.1,30.9,65,30.48,10.0,Calm,Calm,-,N/A,,Clear,0,2013-04-18 15:53:00
9:53 AM,46.0,30.9,56,30.46,10.0,Calm,Calm,-,N/A,,Clear,0,2013-04-18 16:53:00
10:53 AM,51.1,30.9,46,30.45,10.0,Calm,Calm,-,N/A,,Clear,0,2013-04-18 17:53:00
11:53 AM,54.0,30.9,41,30.43,10.0,WSW,5.8,-,N/A,,Clear,250,2013-04-18 18:53:00
12:53 PM,57.9,32.0,37,30.41,10.0,Variable,4.6,-,N/A,,Clear,0,2013-04-18 19:53:00
1:53 PM,61.0,34.0,36,30.40,10.0,NNE,6.9,-,N/A,,Clear,20,2013-04-18 20:53:00
2:53 PM,64.9,34.0,32,30.38,10.0,NNE,8.1,-,N/A,,Clear,20,2013-04-18 21:53:00
3:53 PM,66.0,34.0,30,30.36,10.0,NW,5.8,-,N/A,,Clear,320,2013-04-18 22:53:00
4:53 PM,66.9,36.0,32,30.33,10.0,NE,4.6,-,N/A,,Clear,50,2013-04-18 23:53:00
5:53 PM,64.9,36.0,34,30.34,10.0,North,15.0,-,N/A,,Clear,360,2013-04-19 00:53:00
6:53 PM,63.0,34.0,34,30.35,10.0,North,12.7,-,N/A,,Clear,360,2013-04-19 01:53:00
7:53 PM,55.0,36.0,49,30.35,10.0,NNE,8.1,-,N/A,,Clear,20,2013-04-19 02:53:00
8:53 PM,52.0,35.1,53,30.36,10.0,NNE,8.1,-,N/A,,Clear,20,2013-04-19 03:53:00
9:53 PM,52.0,37.0,57,30.37,10.0,North,9.2,-,N/A,,Clear,360,2013-04-19 04:53:00
10:53 PM,51.1,37.0,59,30.35,10.0,North,4.6,-,N/A,,Clear,10,2013-04-19 05:53:00
11:53 PM,44.1,35.1,71,30.36,10.0,South,3.5,-,N/A,,Clear,170,2013-04-19 06:53:00